TimeCDT,TemperatureF,Dew PointF,Humidity,Sea Level PressureIn,VisibilityMPH,Wind Direction,Wind SpeedMPH,Gust SpeedMPH,PrecipitationIn,Events,Conditions,WindDirDegrees,DateUTC
12:53 AM,66.0,64.9,96,29.87,10.0,South,17.3,21.9,N/A,,Overcast,170,2013-10-15 05:53:00
1:53 AM,66.9,64.9,93,29.86,10.0,South,12.7,-,N/A,,Overcast,170,2013-10-15 06:53:00
2:04 AM,66.9,66.0,97,29.87,10.0,South,18.4,-,N/A,,Overcast,170,2013-10-15 07:04:00
2:53 AM,68.0,66.0,93,29.87,7.0,South,13.8,-,0.00,Rain,Light Rain,190,2013-10-15 07:53:00
3:12 AM,68.0,66.9,96,29.90,4.0,SSW,11.5,-,0.01,Rain-Thunderstorm,Light Thunderstorms and Rain,200,2013-10-15 08:12:00
3:34 AM,68.0,66.0,93,29.86,7.0,South,8.1,17.3,0.06,Rain,Light Rain,180,2013-10-15 08:34:00
3:53 AM,66.9,66.9,100,29.88,8.0,WNW,6.9,-,0.06,,Overcast,300,2013-10-15 08:53:00
4:11 AM,66.9,66.0,97,29.90,10.0,WSW,4.6,-,N/A,,Mostly Cloudy,250,2013-10-15 09:11:00
4:28 AM,64.0,62.1,93,29.90,10.0,NNE,12.7,-,N/A,,Mostly Cloudy,20,2013-10-15 09:28:00
4:39 AM,63.0,61.0,93,29.90,10.0,North,10.4,-,N/A,,Mostly Cloudy,10,2013-10-15 09:39:00
4:53 AM,62.1,60.1,93,29.90,10.0,North,10.4,-,N/A,,Mostly Cloudy,360,2013-10-15 09:53:00
5:03 AM,61.0,60.1,97,29.91,10.0,North,8.1,-,N/A,,Mostly Cloudy,360,2013-10-15 10:03:00
5:44 AM,60.1,59.0,96,29.94,10.0,NW,11.5,-,N/A,,Overcast,320,2013-10-15 10:44:00
5:53 AM,60.1,59.0,96,29.93,10.0,NNW,9.2,-,N/A,,Overcast,330,2013-10-15 10:53:00
6:00 AM,60.1,59.0,96,29.94,10.0,NNW,10.4,-,N/A,,Overcast,330,2013-10-15 11:00:00
6:14 AM,60.1,59.0,96,29.95,10.0,NNW,12.7,-,N/A,,Overcast,330,2013-10-15 11:14:00
6:53 AM,59.0,57.9,96,29.95,10.0,NNW,11.5,-,N/A,,Overcast,330,2013-10-15 11:53:00
7:53 AM,57.0,54.0,89,29.98,10.0,NNW,17.3,-,N/A,,Overcast,340,2013-10-15 12:53:00
8:53 AM,55.9,51.1,84,30.00,10.0,North,12.7,-,N/A,,Overcast,350,2013-10-15 13:53:00
9:00 AM,55.0,50.0,83,30.02,10.0,NNW,15.0,24.2,N/A,,Overcast,340,2013-10-15 14:00:00
9:53 AM,55.0,46.9,74,30.04,10.0,NNW,17.3,23.0,N/A,,Overcast,340,2013-10-15 14:53:00
10:53 AM,55.0,45.0,69,30.05,10.0,North,15.0,-,N/A,,Overcast,350,2013-10-15 15:53:00
11:53 AM,57.0,44.1,62,30.06,10.0,North,15.0,-,N/A,,Overcast,350,2013-10-15 16:53:00
12:53 PM,57.9,43.0,58,30.05,10.0,North,13.8,-,N/A,,Overcast,350,2013-10-15 17:53:00
1:53 PM,57.9,44.1,60,30.04,10.0,NW,9.2,-,N/A,,Mostly Cloudy,320,2013-10-15 18:53:00
2:53 PM,59.0,44.1,58,30.03,10.0,NNW,10.4,-,N/A,,Mostly Cloudy,330,2013-10-15 19:53:00
3:53 PM,59.0,43.0,55,30.01,10.0,North,11.5,-,N/A,,Mostly Cloudy,350,2013-10-15 20:53:00
4:53 PM,59.0,43.0,55,30.02,10.0,NNW,11.5,-,N/A,,Mostly Cloudy,340,2013-10-15 21:53:00
5:53 PM,57.9,43.0,58,30.02,10.0,NNW,5.8,-,N/A,,Mostly Cloudy,340,2013-10-15 22:53:00
6:53 PM,55.9,45.0,67,30.03,10.0,NW,3.5,-,N/A,,Mostly Cloudy,320,2013-10-15 23:53:00
7:53 PM,55.9,45.0,67,30.05,10.0,Calm,Calm,-,N/A,,Mostly Cloudy,0,2013-10-16 00:53:00
8:53 PM,55.9,45.0,67,30.06,10.0,Calm,Calm,-,N/A,,Mostly Cloudy,0,2013-10-16 01:53:00
9:53 PM,55.0,46.9,74,30.09,10.0,NW,5.8,-,N/A,,Mostly Cloudy,320,2013-10-16 02:53:00
10:53 PM,52.0,46.9,83,30.09,10.0,NNW,4.6,-,N/A,,Mostly Cloudy,330,2013-10-16 03:53:00
11:53 PM,53.1,45.0,74,30.10,10.0,NNW,5.8,-,N/A,,Overcast,330,2013-10-16 04:53:00